This is the latest recevied weather packets stored in our database for station/object FW7644. If no packets are shown the sender has not sent any weather packets the latest 10 day(s).
| Time | Temp. | Humidity | Pressure | Rain* | Wind** | Luminosity | Snow |
|---|---|---|---|---|---|---|---|
| 1778012466 | 24.44° C | 61% | 1022.3 hPa | 0 mm | - | - | - |
| 1778012164 | 25° C | 60% | 1022.3 hPa | 0 mm | - | - | - |
| 1778011862 | 25° C | 59% | 1022.3 hPa | 0 mm | - | - | - |
| 1778011560 | 25.56° C | 57% | 1022.3 hPa | 0 mm | - | - | - |
| 1778011259 | 25.56° C | 57% | 1022.4 hPa | 0 mm | - | - | - |
| 1778010957 | 25.56° C | 56% | 1022.4 hPa | 0 mm | - | - | - |
| 1778010655 | 26.67° C | 52% | 1022.3 hPa | 0 mm | - | - | - |
| 1778010353 | 26.67° C | 52% | 1022.3 hPa | 0 mm | - | - | - |
| 1778010051 | 26.11° C | 54% | 1022.3 hPa | 0 mm | - | - | - |
| 1778009749 | 25.56° C | 54% | 1022.2 hPa | 0 mm | - | - | - |
| 1778009447 | 25.56° C | 54% | 1022.2 hPa | 0 mm | - | - | - |
| 1778009146 | 25.56° C | 53% | 1022.2 hPa | 0 mm | - | - | - |
| 1778008844 | 26.11° C | 52% | 1022.1 hPa | 0 mm | - | - | - |
| 1778008542 | 26.67° C | 51% | 1022.1 hPa | 0 mm | - | - | - |
| 1778008241 | 27.78° C | 48% | 1022.2 hPa | 0 mm | - | - | - |
| 1778007939 | 28.89° C | 45% | 1022.2 hPa | 0 mm | - | - | - |
| 1778007637 | 29.44° C | 44% | 1022.3 hPa | 0 mm | - | - | - |
| 1778007336 | 29.44° C | 44% | 1022.3 hPa | 0 mm | - | - | - |
| 1778007034 | 29.44° C | 44% | 1022.4 hPa | 0 mm | - | - | - |
| 1778006732 | 29.44° C | 42% | 1022.4 hPa | 0 mm | - | - | - |
| 1778006431 | 30° C | 42% | 1022.3 hPa | 0 mm | - | - | - |
| 1778006129 | 30° C | 42% | 1022.3 hPa | 0 mm | - | - | - |
| 1778005827 | 30° C | 42% | 1022.4 hPa | 0 mm | - | - | - |
| 1778005525 | 28.33° C | 44% | 1022.3 hPa | 0 mm | - | - | - |
| 1778005223 | 28.33° C | 45% | 1022.4 hPa | 0 mm | - | - | - |
* Rain latest hour (hover to see other rain measurements)
** Current wind speed in m/s (hover to see current wind gust speed)